Regional Weather Roundup
Issued by NWS Jackson, KY

Home | Current Version | Previous Version | Graphics & Text | Print | Product List | Glossary On
Versions: 1 2 3 4 5 6 7 8 9 10 11 12 13 14 15 16 17 18 19 20 21 22 23 24 25 26 27 28 29 30 31 32 33 34 35 36 37 38 39 40 41 42 43 44 45 46 47 48 49 50
000
ASUS43 KJKL 280911
RWRJKL

EAST KENTUCKY HOURLY WEATHER ROUNDUP
NATIONAL WEATHER SERVICE JACKSON KY
500 AM EDT THU AUG 28 2014

NOTE: "FAIR" INDICATES FEW OR NO CLOUDS BELOW 12,000 FEET WITH
NO SIGNIFICANT WEATHER AND/OR OBSTRUCTIONS TO VISIBILITY.

* THESE REPORTS ARE NOT UNDER NWS QUALITY CONTROL AND MAY NOT
  REPORT WEATHER SUCH AS PRECIPITATION AND FOG.

KYZ079-080-083-085-087-088-110-112-115-119-120-281000
...EASTERN KENTUCKY...

CITY           SKY/WX    TMP DP  RH WIND       PRES   REMARKS
JACKSON        FOG       69  67  93 CALM      30.06S VSB 3/4
LONDON         CLEAR     71  67  87 CALM      30.06F
SOMERSET*      CLEAR     68  68 100 CALM      30.06S FOG
MONTICELLO*    CLEAR     69  69 100 CALM      30.07R FOG
WILLIAMSBURG*  CLEAR     66  66 100 CALM      30.06
MIDDLESBORO*   CLEAR     64  64  97 CALM      30.08S
HARLAN APT*    CLOUDY    64  64 100 MISG      30.08F VSB<1/4
HAZARD APT*    MOSUNNY   68  68 100 CALM      30.07S FOG
BLACK MTN*       N/A     64  63  94 NE3         N/A
PIKEVILLE APT* CLEAR     68  66  94 SW5       30.06S
BIG SANDY*     SUNNY     70  69  97 CALM      30.05S
MOREHEAD APT*  PTSUNNY   68  68 100 CALM      30.07S FOG
$$

KYZ035-036-041-042-044-050-067-078-099-281000
...CENTRAL KENTUCKY...

CITY           SKY/WX    TMP DP  RH WIND       PRES   REMARKS
MT STERLING*   MOCLDY    66  66 100 CALM      30.06F FOG
FLEMING/MASON* CLEAR     70  68  94 NE3       30.06S FOG
DANVILLE*      CLEAR     68  68 100 CALM      30.07S
RICHMOND*      CLEAR     68  66  94 CALM      30.05S
LEXINGTON      CLEAR     71  68  90 CALM      30.05F
FRANKFORT      CLEAR     69  68  96 CALM      30.04S FOG
$$

KYZ091>093-OHZ055-061-077-WVZ005-015-034-035-042-281000
...SOUTHERN OHIO/WEST VIRGINIA...

CITY           SKY/WX    TMP DP  RH WIND       PRES   REMARKS
COVINGTON      CLEAR     73  68  84 NE5       30.06S
COLUMBUS       CLEAR     66  61  84 N5        30.08S
DAYTON         CLEAR     66  62  87 NE3       30.10S
WILMINGTON     CLEAR     64  61  90 NE6       30.07S
HUNTINGTON     CLOUDY    70  70 100 NE6       30.03S FOG
CHARLESTON     CLOUDY    69  69 100 CALM      30.04R FOG
PINEVILLE*     CLOUDY    69  69 100 MISG      30.12R FOG
BECKLEY        CLOUDY    67  65  93 CALM      30.10S FOG
BLUEFIELD      CLOUDY    67  63  87 W8        30.12S
$$

VAZ002-007-008-TNZ017-027-036-066-071-281000
...SOUTHWEST VIRGINIA/EAST TENNESSEE...

CITY           SKY/WX    TMP DP  RH WIND       PRES   REMARKS
WISE*          CLEAR     66  63  88 SW3       30.13S
JONESVILLE*      N/A     63  63 100 CALM      30.09F
ABINGDON*      CLEAR     63  62  96 CALM      30.09F
BRISTOL        CLEAR     63  59  87 CALM      30.07F
KNOXVILLE      CLEAR     66  63  90 CALM      30.05R
OAK RIDGE      CLEAR     67  65  93 CALM      30.07R
CROSSVILLE     CLEAR     70  63  78 CALM      30.10S
NASHVILLE      CLEAR     73  71  93 CALM      30.03S
$$

...KEY TO REMARKS...
VSB - VISIBILITY IN MILES
WCI - WIND CHILL INDEX
HX  - HEAT INDEX

$$



USA.gov is the U.S. government's official web portal to all federal, state and local government web resources and services.